Notices

What's New in latest Release from April 7th, 2021:

- Updated Glossary, including Speed of Maximum Gust, and Total Hourly Precipitation

- Updated national and regional climate services offices contacts and prices information

- Addition of station inventory lists for 1981-2010, 1971-2000, and 1961-1990 Normals.

If you haven't already, please take our survey and provide feedback about our website: https://eccc.sondage-survey.ca/f/LanguageSelection.aspx?s=442ca660-fcf1-47c0-95a9-59707d6fd709

Hourly Data Report for November 21, 2019

CARBERRY CS
MANITOBA
Current Station Operator: ECCC - MSC

49°54'20.900" N
99°21'26.800" W
383.50 m
5010547
71170
WZE

Download Data

Hourly Data (November 2019)
Hourly Data Report for November 21, 2019
TIME
LST
Temp Definition
°C
Dew Point Definition
°C
Rel Hum Definition
%
Precip. Amount Definition
mm

Wind Dir Definition
10's deg

Wind Spd Definition
km/h
Visibility Definition
km
Stn Press Definition
kPa
Hmdx Definition


Wind Chill Definition


Weather Definition


00:00 -7.3 -7.5 98 0.0 2 6   97.45   -10 LegendNANA
01:00 -7.1 -7.3 98 0.0 1 5   97.43   -10 LegendNANA
02:00 -8.2 -8.6 97 0.0 3 12   97.43   -14 LegendNANA
03:00 -8.5 -9.5 92 0.0 4 11   97.42   -14 LegendNANA
04:00 -8.7 -10.0 90 0.0 2 10   97.53   -14 LegendNANA
05:00 -9.2 -10.7 89 0.0 2 9   97.52   -14 LegendNANA
06:00 -9.5 -11.1 88 0.0 3 8   97.51   -14 LegendNANA
07:00 -9.7 -11.4 87 0.0 2 7   97.53   -14 LegendNANA
08:00 -9.7 -11.5 87 0.0 36 4   97.62   -12 LegendNANA
09:00 -9.5 -11.7 84 0.0 33 6   97.62   -13 LegendNANA
10:00 -9.4 -12.2 80 0.0 33 4   97.60   -12 LegendNANA
11:00 -9.4 -12.2 80 0.2 30 6   97.60   -13 LegendNANA
12:00 -9.2 -12.6 76 0.0 26 11   97.55   -15 LegendNANA
13:00 -8.0 -12.0 73 0.0 24 8   97.53   -12 LegendNANA
14:00 -8.4 -13.0 69 0.0 26 13   97.53   -14 LegendNANA
15:00 -7.7 -12.8 67 0.0 23 11   97.46   -13 LegendNANA
16:00 -8.2 -13.0 68 0.0 22 11   97.40   -13 LegendNANA
17:00 -10.3 -13.4 78 0.0 20 9   97.40   -15 LegendNANA
18:00 -11.6 -14.0 82 0.0 22 8   97.41   -16 LegendNANA
19:00 -13.4 -15.7 83 0.0 20 8   97.39   -18 LegendNANA
20:00 -12.8 -15.0 84 0.0 20 8   97.34   -18 LegendNANA
21:00 -11.0 -12.6 88 0.0 22 13   97.24   -17 LegendNANA
22:00 -8.3 -8.3 100 0.0 23 15   97.20   -15 LegendNANA
23:00 -6.4 -6.7 98 0.0 23 19   97.16   -13 LegendNANA

Notes on Data Quality.

Legend

  • E = Estimated
  • M = Missing
  • NA = Not Available*
  • [empty] = Indicates an unobserved value
Date modified: